Vorticity
5 6 6 7 5 6 10 13 16 -0 12 0 7 17 11 14 11 12 7 13 6 11 12 11 12 12 5 9 19 23 11 9 5 14 10 7 14 18 4 3 14 33 8 -0
16 72 40 17 28 34 40 50 48 25 8 11 8 4 13 -1 5 10 10 8 7 9 8 10 13 9 10 6 15 18 21 8 16 4 16 8 4 9 9 17 -4 3 21 -4
12 -14 14 52 11 22 2 -0 24 5 5 1 -0 -4 2 9 9 6 5 7 14 14 13 11 8 8 6 9 6 16 14 12 9 10 13 12 10 6 3 4 12 13 19 -1
-1 35 20 17 -12 -8 6 -26 -1 5 8 5 8 2 -1 -4 5 7 4 4 4 7 5 -4 1 3 1 4 9 7 20 11 8 15 20 20 13 10 10 6 13 24 -4 13
8 12 0 13 16 -9 4 10 32 19 3 1 -7 10 3 -1 -4 8 6 2 4 8 8 5 5 7 2 -3 4 10 14 17 8 15 24 9 4 18 17 11 19 17 25 2
16 11 12 -29 -7 14 18 25 29 -13 -14 -11 -3 10 11 11 10 11 14 15 12 8 13 15 16 9 9 4 1 4 12 7 10 6 1 33 0 8 21 -6 6 15 18 0
7 31 7 18 14 -7 37 -34 -15 7 5 3 8 7 10 14 11 10 4 9 2 12 14 18 20 24 21 9 14 3 8 13 13 5 6 12 12 8 3 -2 4 -5 -14 -6
20 12 28 -24 -8 21 3 6 6 13 15 15 12 13 13 15 4 9 15 12 19 18 13 12 14 15 19 24 16 11 5 7 13 5 13 -0 11 16 10 -3 4 13 21 -3
13 -19 3 -2 1 1 3 5 7 2 -3 -2 1 -2 -2 6 14 12 15 11 20 9 9 10 14 14 13 20 25 13 9 4 16 12 5 4 25 9 10 7 15 8 15 20
7 6 12 1 11 11 19 23 24 23 20 16 12 12 11 6 7 8 16 15 13 8 8 14 12 14 17 13 15 27 11 6 12 20 3 10 10 8 10 16 13 20 29 26
8 9 14 10 29 27 25 25 25 23 21 22 25 22 23 21 21 18 18 14 7 7 9 12 10 11 17 14 12 20 23 3 19 11 4 4 4 13 14 14 20 23 38 35
-5 12 7 20 21 20 18 18 20 22 27 23 23 21 20 21 22 15 12 11 6 8 9 10 11 13 15 13 12 18 37 6 17 -1 25 10 14 14 18 17 22 18 11 16
11 11 14 23 22 17 18 20 16 19 19 24 29 27 23 19 18 15 11 11 7 8 11 7 10 11 13 16 13 19 24 21 13 20 9 11 10 14 19 20 21 23 13 8
11 13 13 17 19 22 14 14 20 18 24 23 36 40 30 23 21 17 14 13 11 6 7 9 12 13 12 16 15 23 14 17 18 12 17 13 15 16 15 21 18 2 5 7
10 12 11 13 19 21 18 17 18 15 15 14 22 30 32 30 24 21 22 18 13 6 10 9 15 14 10 18 13 16 14 14 18 8 18 20 10 14 15 12 15 13 13 12
8 10 12 12 12 18 22 19 16 16 15 18 14 17 28 29 28 32 31 26 10 7 14 12 16 15 14 17 11 10 15 10 21 13 29 9 10 18 21 11 10 11 10 8
7 7 10 9 13 8 18 23 17 14 15 15 21 10 15 17 16 18 16 12 11 13 13 14 19 15 14 13 13 9 8 13 25 22 22 10 14 16 11 4 4 12 15 11
7 9 9 9 11 11 9 8 13 19 20 21 16 21 20 14 11 10 11 12 13 12 11 15 19 15 16 15 7 26 14 26 25 25 4 17 14 8 6 9 14 8 7 4
9 9 9 7 10 12 10 9 11 12 12 15 25 27 27 24 23 22 19 18 17 15 18 18 20 23 20 15 15 20 27 27 23 24 0 22 11 5 12 10 9 5 5 6
13 10 11 10 10 8 10 11 13 13 13 12 13 15 23 27 20 25 24 28 29 34 30 33 33 19 19 28 37 30 25 26 24 9 22 9 5 12 8 5 6 4 4 5
20 12 15 11 12 10 10 10 11 13 16 15 12 12 14 13 28 37 35 29 12 11 18 25 29 37 36 30 24 21 24 14 17 25 12 4 9 24 5 10 9 5 6 8
15 14 15 14 15 15 12 15 12 13 12 11 15 19 17 14 14 13 12 13 17 33 30 25 21 19 17 20 21 17 17 21 20 24 12 8 13 9 9 9 6 7 8 7
10 10 12 11 12 12 14 14 15 15 16 14 13 12 11 14 18 15 12 15 15 10 10 10 11 12 14 14 13 16 18 17 17 14 11 10 10 8 9 10 10 11 12 11
13 14 14 15 14 17 15 13 16 14 16 16 15 17 16 15 14 12 14 13 15 19 16 17 18 18 14 14 14 14 14 12 13 12 12 12 13 13 11 11 12 9 5 3
11 12 13 14 11 10 11 11 10 11 9 9 8 7 7 9 10 10 13 13 12 17 19 15 17 18 17 17 16 16 15 15 12 11 11 11 10 8 7 7 8 10 11 12
9 11 10 12 13 12 13 11 11 12 11 11 13 12 11 11 11 11 11 11 9 8 7 7 8 7 7 8 7 8 7 8 8 8 9 9 9 9 9 9 9 10 10 10
11 12 11 13 14 11 11 11 10 12 12 11 12 15 14 15 16 17 17 19 18 18 18 17 17 15 15 14 14 15 16 15 15 14 14 14 14 15 16 18 18 20 21 23
Height
3002 3000 2998 2995 2990 2989 2992 2990 2989 2985 2989 2983 2979 2978 2979 2976 2974 2976 2977 2977 2977 2977 2976 2973 2971 2969 2968 2966 2964 2965 2966 2967 2968 2969 2972 2975 2977 2980 2983 2987 2990 2994 2997 3003
2994 2993 2991 2987 2986 2983 2982 2981 2980 2980 2984 2979 2977 2973 2974 2974 2971 2971 2969 2970 2971 2971 2969 2968 2966 2965 2964 2963 2961 2959 2961 2963 2964 2966 2967 2970 2973 2976 2978 2981 2984 2990 2991 2996
2993 2991 2987 2985 2983 2981 2980 2978 2977 2976 2975 2974 2975 2972 2969 2969 2967 2965 2963 2962 2963 2962 2962 2962 2961 2960 2960 2959 2958 2957 2955 2956 2959 2961 2962 2963 2966 2970 2973 2975 2977 2982 2987 2989
2991 2989 2987 2983 2981 2980 2980 2979 2977 2976 2974 2971 2969 2967 2965 2964 2962 2961 2960 2956 2955 2955 2956 2957 2956 2956 2955 2955 2954 2952 2952 2951 2952 2954 2956 2958 2960 2965 2967 2970 2975 2977 2980 2983
2990 2989 2985 2982 2979 2978 2977 2972 2974 2971 2969 2965 2962 2959 2960 2959 2957 2954 2953 2950 2948 2948 2948 2947 2948 2948 2947 2949 2949 2948 2947 2947 2947 2947 2949 2953 2956 2958 2961 2965 2966 2970 2974 2978
2989 2988 2984 2982 2980 2976 2974 2969 2969 2967 2963 2960 2956 2949 2949 2950 2947 2946 2945 2944 2941 2940 2937 2937 2938 2938 2937 2939 2941 2942 2941 2941 2941 2944 2945 2947 2950 2952 2956 2957 2960 2963 2967 2969
2986 2984 2979 2978 2975 2971 2970 2970 2962 2958 2954 2950 2947 2944 2939 2939 2937 2936 2935 2935 2934 2931 2928 2927 2927 2926 2926 2929 2933 2934 2935 2935 2935 2937 2939 2942 2944 2947 2949 2950 2953 2955 2957 2961
2984 2980 2977 2972 2971 2971 2964 2955 2951 2948 2944 2938 2934 2931 2930 2928 2926 2925 2924 2924 2923 2921 2920 2919 2919 2916 2915 2918 2923 2925 2926 2927 2928 2929 2931 2932 2934 2936 2940 2943 2943 2945 2948 2950
2984 2977 2973 2969 2967 2962 2956 2947 2941 2936 2932 2927 2920 2918 2917 2916 2915 2914 2914 2913 2911 2911 2909 2911 2910 2908 2905 2910 2911 2913 2916 2918 2919 2921 2923 2925 2926 2928 2929 2931 2932 2934 2935 2935
2978 2974 2966 2960 2956 2950 2942 2932 2925 2921 2914 2911 2905 2903 2901 2902 2902 2903 2904 2903 2902 2901 2901 2901 2901 2900 2898 2901 2901 2901 2905 2908 2909 2912 2914 2917 2917 2918 2918 2920 2921 2921 2920 2923
2968 2963 2952 2949 2942 2931 2923 2919 2911 2906 2900 2895 2891 2886 2886 2886 2888 2890 2891 2893 2893 2891 2892 2892 2892 2891 2892 2893 2893 2893 2895 2899 2901 2903 2905 2907 2909 2910 2911 2912 2913 2912 2916 2920
2961 2956 2947 2936 2928 2920 2911 2904 2899 2892 2886 2883 2878 2873 2873 2872 2876 2878 2880 2883 2884 2884 2884 2884 2883 2884 2884 2885 2884 2884 2887 2891 2894 2896 2898 2900 2902 2904 2905 2907 2908 2910 2914 2917
2960 2952 2944 2933 2923 2915 2906 2898 2891 2883 2876 2867 2864 2859 2859 2860 2864 2867 2870 2872 2875 2875 2876 2876 2875 2875 2876 2875 2875 2877 2880 2884 2886 2889 2893 2895 2898 2899 2902 2903 2904 2908 2912 2915
2957 2946 2938 2928 2916 2910 2901 2894 2886 2879 2872 2863 2855 2849 2848 2849 2853 2855 2859 2862 2865 2867 2868 2868 2866 2866 2867 2867 2867 2870 2872 2874 2878 2882 2885 2889 2892 2895 2898 2901 2901 2904 2908 2914
2953 2945 2936 2927 2918 2908 2899 2890 2882 2874 2867 2860 2853 2846 2843 2842 2844 2846 2848 2852 2856 2859 2860 2859 2858 2859 2860 2860 2861 2863 2865 2868 2871 2874 2878 2881 2886 2890 2894 2897 2901 2905 2908 2913
2949 2943 2936 2926 2916 2906 2895 2887 2879 2872 2866 2860 2853 2847 2843 2840 2839 2840 2842 2845 2848 2851 2852 2851 2851 2852 2852 2853 2855 2857 2859 2861 2863 2867 2871 2876 2881 2886 2891 2895 2900 2906 2911 2915
2946 2938 2930 2923 2915 2905 2895 2887 2880 2873 2866 2860 2854 2850 2846 2843 2841 2840 2841 2842 2844 2845 2845 2844 2845 2845 2846 2847 2849 2851 2852 2854 2857 2861 2866 2872 2878 2884 2890 2895 2901 2907 2913 2917
2947 2940 2933 2924 2916 2907 2899 2891 2883 2875 2867 2862 2856 2852 2847 2843 2841 2840 2839 2839 2839 2839 2839 2838 2838 2838 2839 2841 2842 2844 2846 2848 2852 2857 2863 2870 2877 2884 2891 2897 2902 2907 2910 2914
2946 2940 2933 2926 2919 2911 2903 2895 2887 2880 2873 2866 2859 2852 2848 2844 2841 2838 2836 2836 2835 2834 2834 2832 2832 2833 2834 2835 2837 2839 2840 2843 2848 2854 2863 2870 2878 2885 2892 2897 2900 2904 2909 2913
2946 2940 2934 2928 2921 2914 2907 2900 2893 2886 2879 2872 2866 2859 2852 2847 2843 2840 2837 2835 2833 2832 2831 2830 2830 2830 2830 2832 2833 2836 2838 2843 2848 2855 2863 2872 2879 2887 2892 2894 2898 2903 2907 2910
2944 2939 2934 2928 2922 2916 2910 2904 2897 2891 2885 2879 2872 2865 2859 2855 2849 2845 2841 2838 2836 2835 2833 2831 2831 2831 2832 2832 2834 2836 2840 2845 2851 2858 2866 2874 2881 2886 2889 2893 2897 2901 2904 2907
2945 2940 2935 2929 2924 2919 2913 2908 2902 2897 2891 2886 2880 2874 2869 2863 2858 2853 2849 2845 2843 2842 2839 2836 2836 2836 2836 2837 2838 2841 2845 2849 2855 2863 2870 2876 2881 2885 2889 2892 2895 2898 2901 2903
2947 2942 2937 2932 2927 2922 2918 2912 2907 2901 2896 2891 2885 2880 2875 2870 2866 2863 2858 2855 2855 2851 2848 2845 2845 2845 2845 2846 2848 2851 2855 2859 2864 2869 2874 2878 2882 2886 2889 2892 2894 2896 2898 2900
2949 2945 2940 2936 2931 2928 2922 2916 2912 2907 2902 2897 2892 2888 2884 2879 2874 2871 2868 2866 2865 2863 2859 2858 2857 2858 2858 2859 2860 2862 2865 2867 2871 2874 2877 2881 2884 2886 2888 2889 2891 2893 2895 2896
2952 2948 2944 2940 2935 2930 2925 2921 2917 2913 2908 2904 2899 2895 2890 2886 2883 2880 2878 2876 2874 2872 2869 2867 2867 2867 2867 2867 2868 2869 2870 2872 2874 2877 2879 2882 2884 2885 2887 2889 2890 2891 2891 2891
2954 2950 2946 2942 2938 2934 2930 2927 2923 2919 2915 2910 2907 2903 2898 2895 2891 2889 2886 2884 2882 2880 2879 2877 2875 2874 2874 2874 2874 2874 2875 2876 2878 2880 2882 2883 2884 2885 2886 2886 2886 2886 2886 2884
2957 2954 2950 2947 2943 2938 2935 2932 2928 2924 2920 2916 2913 2909 2905 2902 2900 2898 2895 2893 2891 2888 2886 2884 2884 2882 2881 2880 2880 2880 2881 2882 2882 2882 2883 2883 2883 2883 2883 2882 2882 2881 2879 2877